Flag for Canada Weather past 2 weeks in Kawartha Lakes, Ontario, Canada

Now
37 °F

Chilly.


Feels Like: 31 °F
Forecast: 27 / 52 °F
Wind: 8 mph from Northwest

Location: Lagoon City

Current Time: Apr 25, 2015 at 11:02:12 AM

Latest Report: Apr 25, 2015 at 10:00 AM


Visibility: N/A

Pressure: 29.95 "Hg

Humidity: 55%

Dew point: 22 °F

Location of Kawartha LakesLocation

Historic Weather in Kawartha Lakes — Graph

°F

Kawartha Lakes temperature yesterday

Maximum temperature yesterday: 34 °F (at 7:00 PM)
Minimum temperature yesterday: 30 °F (at 8:00 AM)
Average temperature yesterday: 32 °F

Past Weeks' High & Low Weather Summary

 TemperatureHumidityPressure
High61 °F (Apr 12, 6:00 PM)100% (Apr 17, 11:00 AM)30.41 "Hg (Apr 17, 11:00 AM)
Low30 °F (Apr 23, 5:00 AM)23% (Apr 14, 5:00 PM)29.34 "Hg (Apr 20, 4:00 PM)
Average41 °F69%29.97 "Hg
* Reported Apr 10 9:00 AM — Apr 25 9:00 AM, Kawartha Lakes, Weather by CustomWeather, © 2015

Note: Actual official high and low records may vary slightly from our data, if they occured in-between our weather recording intervals... More about our weather records

Advertising

Kawartha Lakes weather history for previous 24 hours

 ConditionsComfort  
Time TempWeatherWind HumidityBarometerVisibility
9:00 AM
Sat, Apr 25
35 °FChilly.5 mph68%29.96 "HgN/A
8:00 AM33 °FChilly.5 mph79%29.98 "HgN/A
7:00 AM31 °FChilly.2 mph84%29.98 "HgN/A
6:00 AM31 °FChilly.6 mph84%29.98 "HgN/A
5:00 AM30 °FChilly.7 mph83%29.97 "HgN/A
4:00 AM31 °FChilly.8 mph85%29.98 "HgN/A
3:00 AM33 °FChilly.9 mph77%29.99 "HgN/A
2:00 AM30 °FChilly.6 mph82%29.99 "HgN/A
1:00 AM31 °FChilly.6 mph79%30.00 "HgN/A
12:00 AM31 °FChilly.9 mph76%30.01 "HgN/A
11:00 PM
Fri, Apr 24
32 °FChilly.8 mph75%30.02 "HgN/A
10:00 PM32 °FChilly.12 mph65%30.01 "HgN/A
9:00 PM31 °FChilly.13 mph65%30.01 "HgN/A
7:00 PM34 °FChilly.16 mph56%29.98 "HgN/A
6:00 PM34 °FChilly.24 mph57%29.98 "HgN/A
5:00 PM34 °FChilly.23 mph61%29.98 "HgN/A
4:00 PM33 °FChilly.21 mph58%29.97 "HgN/A
3:00 PM33 °FChilly.24 mph60%29.97 "HgN/A
2:00 PM32 °FChilly.24 mph65%29.97 "HgN/A
1:00 PM32 °FChilly.20 mph67%29.96 "HgN/A
12:00 PM31 °FChilly.21 mph60%29.96 "HgN/A
11:00 AM31 °FChilly.23 mph61%29.95 "HgN/A
Weather by CustomWeather, © 2015

See weather overviewHow to use our weather pages